sat.trackr.live / text

‹ back to catalog

STARLINK-35834

NORAD 66570 · 2025-268P

PAYLOAD ACTIVE UNKNOWN

§ Identity

Operator
Country
US
Launch date
2025-11-21
Launch site
AFETR
Launch vehicle
Mass (kg)
RCS (m²)

Purposes: comms

External: N2YO · Heavens-Above · Gunter

§ Orbital elements

Epoch: 2026-05-25T01:18:23.438016Z

Period
94.27 min
Inclination
42.9952°
Eccentricity
0.0000502
Mean motion
15.27584124 rev/d
Perigee alt
482.7 km
Apogee alt
483.4 km
Semi-major
6,861.2 km
B*
3.8031e-4
RAAN
276.2419°
Arg perigee
5.7134°
Mean anomaly
354.3723°
Rev number
2,963

§ Raw data

STARLINK-358341 66570U 25268P   26145.05443794  .00010219  00000+0  38031-3 0  99912 66570  42.9952 276.2419 0000502   5.7134 354.3723 15.27584124 29631

JSON: /api/v1/satellites/66570 · /tle

For live sub-satellite position, see the globe view (requires WebGL).

§ Visibility from observer

Set your observer location to see the next 7 days of passes ≥ 10°. The values pass through the URL so the page stays shareable.

No JS? Fill the form by hand. The geolocation button needs JavaScript.